Fort Lewis, WA

9:00 AM PDT on September 26, 2017 (GMT -0700)
Gray Army Air Field

Weather History for KGRF - April, 2013

Change the Weather History Date:

Wednesday, April 3, 2013

  Actual Average Record
Temperature  
Mean Temperature 50 °F -  
Max Temperature 60 °F 54 °F 75 °F (2004)
Min Temperature 41 °F 34 °F 25 °F (2007)
Degree Days  
Heating Degree Days 14    
Moisture  
Dew Point 44 °F    
Average Humidity 77    
Maximum Humidity 100    
Minimum Humidity 57    
Precipitation  
Precipitation 0.00 in - - ()
Sea Level Pressure  
Sea Level Pressure 30.12 in    
Wind  
Wind Speed 4 mph (NW)    
Max Wind Speed 7 mph    
Max Gust Speed -    
Visibility 10 miles    
Events      
Averages and records for this station are not official NWS values.
T = Trace of Precipitation, MM = Missing Value Source: NWS Daily Summary

Daily Weather History Graph

Daily Weather History Graph

Search for Another Location

Airport or City:

Trip Planner

Search our weather history database for the weather conditions in past years. The results will help you decide how hot, cold, wet, or windy it might be!

Date:

Astronomy

Apr. 03, 2013 Rise Set
Actual Time 6:44 AM PDT 7:43 PM PDT
Civil Twilight 6:13 AM PDT 8:14 PM PDT
Nautical Twilight 5:36 AM PDT 8:51 PM PDT
Astronomical Twilight 4:57 AM PDT 9:30 PM PDT
Moon 2:54 AM PDT (4/3) 12:37 PM PDT (4/3)
Length of Visible Light 14h 00m
Length of Day
12h 58m
Last Quarter, 43% of the Moon is Illuminated
Apr 3
Last Quarter
Apr 10
New
Apr 18
First Quarter
Apr 25
Full
May 2
Last Quarter

Hourly Weather History & Observations

Time (PDT) Temp. Windchill Dew Point Humidity Pressure Visibility Wind Dir Wind Speed Gust Speed Precip Events Conditions
12:43 AM 48.2 °F - 44.6 °F 87% 30.18 in 10.0 mi West 5.8 mph - N/A   Overcast
12:58 AM 48.6 °F - 44.2 °F 85% 30.21 in 10.0 mi SW 2.3 mph - N/A   Overcast
1:03 AM 48.2 °F - 44.6 °F 87% 30.19 in 10.0 mi WSW 3.5 mph - N/A   Overcast
1:58 AM 48.2 °F - 44.2 °F 86% 30.21 in 10.0 mi WNW 4.6 mph - N/A   Overcast
2:58 AM 48.0 °F - 44.1 °F 86% 30.19 in 10.0 mi NNW 2.3 mph - N/A   Overcast
3:58 AM 47.8 °F - 43.5 °F 85% 30.19 in 10.0 mi NW 3.5 mph - N/A   Overcast
4:58 AM 47.1 °F - 41.9 °F 82% 30.19 in 10.0 mi West 4.6 mph - N/A   Overcast
5:28 AM 46.4 °F - 41.0 °F 81% 30.17 in 10.0 mi NNW 2.3 mph - N/A   Mostly Cloudy
5:58 AM 44.6 °F - 42.4 °F 92% 30.19 in 10.0 mi NE 2.3 mph - N/A   Mostly Cloudy
6:58 AM 41.2 °F 38.2 °F 40.3 °F 97% 30.19 in 10.0 mi SE 4.6 mph - N/A   Mostly Cloudy
7:03 AM 41.0 °F 39.0 °F 41.0 °F 100% 30.17 in 10.0 mi SE 3.5 mph - N/A   Mostly Cloudy
7:58 AM 43.9 °F - 42.6 °F 95% 30.18 in 10.0 mi Calm Calm - N/A   Mostly Cloudy
8:03 AM 44.6 °F - 42.8 °F 93% 30.16 in 10.0 mi Calm Calm - N/A   Scattered Clouds
8:23 AM 44.6 °F - 42.8 °F 93% 30.16 in 10.0 mi SSE 2.3 mph - N/A   Mostly Cloudy
8:58 AM 46.9 °F - 43.2 °F 87% 30.17 in 10.0 mi Calm Calm - N/A   Overcast
9:23 AM 48.2 °F - 42.8 °F 82% 30.14 in 10.0 mi NNW 2.3 mph - N/A   Scattered Clouds
9:58 AM 51.1 °F - 43.5 °F 75% 30.14 in 10.0 mi NW 3.5 mph - N/A   Clear
10:55 AM 53.6 °F - 42.8 °F 67% 30.14 in 10.0 mi Variable 1.2 mph - N/A   Clear
10:58 AM 53.4 °F - 44.1 °F 71% 30.16 in 10.0 mi WNW 2.3 mph - N/A   Partly Cloudy
11:58 AM 56.5 °F - 43.9 °F 63% 30.14 in 10.0 mi Variable 2.3 mph - N/A   Clear
12:58 PM 58.5 °F - 45.0 °F 61% 30.14 in 10.0 mi Variable 3.5 mph - N/A   Mostly Cloudy
1:58 PM 59.0 °F - 45.1 °F 60% 30.12 in 10.0 mi Variable 4.6 mph - N/A   Mostly Cloudy
2:58 PM 60.3 °F - 45.3 °F 58% 30.09 in 10.0 mi NW 5.8 mph - N/A   Mostly Cloudy
3:58 PM 59.9 °F - 44.8 °F 57% 30.09 in 10.0 mi Variable 3.5 mph - N/A   Overcast
4:58 PM 59.9 °F - 44.8 °F 57% 30.07 in 10.0 mi NNW 5.8 mph - N/A   Mostly Cloudy
5:58 PM 59.7 °F - 45.1 °F 59% 30.05 in 10.0 mi North 5.8 mph - N/A   Overcast
6:58 PM 59.7 °F - 45.1 °F 59% 30.02 in 10.0 mi NE 6.9 mph - N/A   Partly Cloudy
7:58 PM 57.0 °F - 45.0 °F 64% 30.00 in 10.0 mi Variable 2.3 mph - N/A   Mostly Cloudy
8:58 PM 54.9 °F - 46.2 °F 73% 30.00 in 10.0 mi NW 4.6 mph - N/A   Overcast
9:58 PM 53.4 °F - 44.8 °F 73% 29.99 in 10.0 mi NW 4.6 mph - N/A   Mostly Cloudy
10:58 PM 52.5 °F - 44.2 °F 73% 29.98 in 10.0 mi NW 2.3 mph - N/A   Overcast
11:58 PM 51.8 °F - 43.9 °F 74% 29.96 in 10.0 mi NNW 2.3 mph - N/A   Overcast